星链-3989 (STARLINK-3989 )

导读

STARLINK-3989是美国SpaceX公司星链(Starlink)星座的卫星,于2022年5月14日发射入轨。星链星座旨在构建全球低轨卫星互联网,为传统基础设施匮乏地区提供高速宽带服务,这颗卫星运行于近地轨道,助力实现更低网络时延,支撑高清视频通话、在线游戏等应用,是星链大规模组网中的一员,推动全球卫星互联网覆盖建设。

基本信息
目录编号:
52630
目录名称:
STARLINK-3989
国际标识:
2022-052AJ
轨道中心:
EARTH
卫星名称:
星链-3989
卫星全名:
星链-3989 (STARLINK-3989 )
卫星状态:
在轨 (已飞行1574 天)
发射日期:
2022-05-14 UTC
国别 :
美国 (US)
星等 :
--
轨道信息
数据来源 国际轨道数据 AOE轨道数据
星历时间 2026-09-02T10:55:55+0800
1天前
查看轨道信息
2026-09-03T02:00:00+0800
1天前
查看轨道信息
半长轴 6848.869km 6848.861km
偏心率 0.0001182 0.0001275
轨道倾角 53.159° 53.158°
近地点辐角 86.209° 70.521°
升交点赤经 185.340° 182.418°
平近点角 273.905° 153.517°
近地点 469.922km 469.85km
远地点 471.542km 471.598km
周期 94.013分钟 94.013分钟
每日圈数 15.317028 15.317055
详细信息
固有亮度:
5
最大亮度:
2.5
卫星平台:
Starlink v1.5
覆盖范围:
全球
运营商:
太空探索技术公司
运营商所在国:
美国
制造商(研发单位):
太空探索技术公司
制造商所在国:
美国
使用方式:
暂无
卫星简介
星链(Starlink)计划是由太空探索技术公司(SpaceX)提出的一个巨型低轨卫星互联网星座项目,计划在2019年至2024年间在太空搭建由约1.2万颗卫星组成的“星链”网络,其中1584颗将部署在地球上空550千米处的近地轨道,并从2020年开始工作。该卫星仍在工作。
2D轨道图
3D轨道图
轨道高度分析图
轨道倾角分析图
轨道综合分析图
查看轨道综合分析图
交会数据列表
事件ID 空间交会对象 最接近时刻(TCA) 交会距离 交会风险概率(CRP) 交会风险指数(CRI) 操作
CDM_260905-035905-263005-315621
2026-09-05T
03:59:43+0000
1.355 km
极远距离
6.732619E-6 低风险 0.52
CDM_260903-170005-263006-759821
2026-09-03T
17:00:13+0000
2.937 km
极远距离
1.315307E-6 低风险 0.37
CDM_260831-143405-263006-519421
2026-08-31T
14:34:28+0000
2.780 km
极远距离
1.206965E-6 低风险 0.37
CDM_260904-112302-054705-263025
USA 55 (20547)
2026-09-04T
11:23:49+0000
2.624 km
极远距离
9.222325E-7 极低风险 0.34